Temp
46 47 48 48 49 49 49 50 51 50 49 48 48 48 47 47 47 47 47 47 47 46 46 46 46 45 44 43 43 42 42 42 42 43 44 43 41 40 40 39 39 38 38 39 39 38 38 38 39 40 41 42 41 40 40 40 39 39 39 40 40 40 39 40 40 40 40 40 40
46 46 47 49 50 49 48 49 49 49 49 48 48 47 47 47 47 47 46 46 46 46 46 45 44 43 43 43 42 42 41 41 41 42 42 41 40 40 39 39 38 38 38 38 38 38 38 38 39 40 41 41 40 39 39 40 39 38 38 39 39 39 39 39 39 39 40 40 40
45 45 45 46 46 46 46 47 46 46 46 46 46 46 46 46 46 46 46 45 45 45 45 44 43 43 42 42 41 41 41 40 40 40 40 40 40 39 39 38 38 39 39 38 37 38 38 37 39 40 41 40 39 39 39 39 40 39 38 38 39 40 40 40 39 39 39 40 39
43 43 44 44 44 44 45 45 45 45 45 45 45 45 45 45 45 45 45 44 44 44 44 43 42 42 41 41 41 41 41 41 40 40 39 39 39 39 39 39 38 38 37 37 37 37 37 37 38 39 39 38 37 38 39 39 39 39 39 38 39 39 39 40 39 40 40 40 39
42 43 43 43 43 43 43 43 43 44 44 44 44 44 44 44 44 43 43 43 43 43 43 42 41 41 41 41 41 40 40 41 42 41 39 39 39 39 38 38 38 37 37 37 36 36 36 36 38 38 38 37 38 38 38 37 37 37 38 39 40 39 39 39 39 39 40 40 38
41 42 42 42 43 43 43 43 43 43 43 43 43 43 42 43 43 43 42 42 42 42 42 43 42 42 41 40 40 40 39 39 40 39 38 38 38 38 38 38 37 37 36 36 36 36 36 35 37 38 38 38 37 37 37 37 36 36 37 38 39 39 38 38 38 39 39 38 37
41 41 41 42 42 42 42 42 42 42 42 42 42 42 41 41 41 41 41 41 41 41 42 43 42 41 40 39 39 39 39 38 38 38 38 37 37 37 37 37 37 36 36 36 35 35 34 34 36 37 38 40 38 37 36 36 36 36 36 36 37 38 37 36 37 38 37 36 36
42 42 42 42 42 42 42 42 42 42 42 42 41 41 41 41 40 40 40 40 40 41 41 42 41 40 39 39 38 38 38 38 37 37 37 37 37 37 37 36 36 36 36 36 35 34 34 34 35 36 36 38 38 37 35 35 34 34 34 34 36 36 36 35 35 36 36 36 35
42 42 42 42 42 42 42 42 42 42 42 42 41 41 41 41 40 40 40 40 41 41 40 40 40 39 39 38 38 37 37 37 37 37 37 37 37 36 36 36 36 35 35 35 35 34 34 34 35 35 35 37 37 36 35 34 34 33 33 34 34 35 35 35 35 35 34 34 34
42 42 42 42 42 42 42 42 42 42 42 41 41 41 42 43 42 41 41 41 41 40 40 39 39 39 38 38 37 37 37 36 36 36 36 37 36 36 36 35 35 35 34 34 34 34 34 34 33 33 33 34 34 33 34 34 33 33 33 34 34 34 33 34 34 34 34 35 34
42 42 42 42 42 42 42 41 42 42 42 42 41 41 42 43 42 42 41 41 40 39 39 39 38 38 38 38 37 37 36 36 36 36 36 36 36 36 35 35 35 34 34 34 34 34 34 34 33 32 32 33 33 33 33 33 33 32 32 32 33 33 32 33 33 33 33 34 33
41 41 41 41 41 42 42 41 42 42 41 41 41 41 41 41 41 41 41 40 40 39 39 38 38 38 38 38 37 37 37 36 36 35 35 35 35 35 35 35 34 34 34 34 34 34 33 33 32 32 32 32 31 32 32 32 32 31 31 31 31 31 31 32 32 32 32 32 32
41 41 41 41 41 41 41 41 41 41 41 41 40 40 40 40 41 41 41 40 40 39 39 38 38 38 37 37 37 37 37 36 35 35 35 34 34 34 34 34 34 34 34 34 34 33 33 32 32 32 32 31 31 31 32 31 31 31 31 30 30 30 30 31 31 31 32 32 32
41 41 41 40 40 40 41 40 41 41 40 40 40 40 40 39 40 40 40 39 39 38 38 38 38 38 38 37 37 36 36 36 35 34 34 34 34 34 34 34 34 34 33 33 33 33 33 32 32 32 32 32 31 31 31 31 31 30 30 30 30 30 30 30 30 31 31 31 32
40 40 40 40 40 40 40 40 40 40 40 39 39 39 39 39 39 40 40 39 38 37 37 37 37 37 37 37 36 35 35 35 34 34 34 34 33 33 33 33 33 33 33 33 33 33 33 33 32 32 32 32 32 32 32 31 31 30 30 30 30 29 29 29 30 30 30 31 31
40 40 40 40 40 40 40 40 40 40 39 39 39 39 38 38 38 39 39 38 37 37 36 36 36 36 36 37 36 35 34 34 34 33 33 33 33 33 33 33 33 33 33 33 33 33 33 33 33 32 32 32 32 33 33 32 31 31 31 31 30 30 30 30 30 30 30 30 30
41 41 40 40 40 40 40 39 39 39 39 39 38 38 38 38 38 38 39 39 38 37 36 36 36 35 35 36 35 35 34 34 33 33 33 33 33 33 33 33 33 33 33 33 33 33 33 33 33 33 32 32 32 33 33 34 33 33 34 34 33 33 32 33 32 32 32 31 31
41 41 41 40 40 40 40 39 39 39 39 38 38 38 38 38 38 38 39 39 37 37 36 36 35 35 34 34 34 35 35 34 33 33 33 33 33 33 33 33 33 33 33 33 34 34 33 33 33 33 33 34 34 34 34 34 35 35 36 36 36 35 35 35 35 35 34 34 34
41 41 41 40 40 40 40 40 39 39 39 38 38 38 38 38 38 37 37 37 37 37 36 36 35 35 34 34 34 35 35 34 33 33 32 32 32 32 32 32 33 33 33 34 35 35 35 35 34 34 35 36 35 35 35 35 35 35 36 36 36 36 36 36 36 36 35 35 35
41 41 41 41 40 40 40 40 39 39 39 39 38 38 38 38 38 37 37 37 38 37 36 36 36 35 34 34 34 34 34 34 33 32 32 32 32 32 32 32 32 32 33 34 35 35 35 36 36 35 36 36 36 35 35 35 35 35 35 35 35 35 35 35 35 35 35 35 35
41 41 41 41 40 40 40 40 39 39 38 38 38 38 38 38 38 37 37 37 37 37 37 36 36 35 34 34 34 33 33 34 33 32 32 32 32 32 32 33 33 33 33 34 34 35 35 35 35 35 35 36 36 35 35 34 34 34 34 34 34 35 35 35 35 35 35 35 35
41 41 41 41 40 40 40 39 39 39 39 38 38 38 38 38 38 38 37 37 37 37 37 36 36 35 35 34 34 33 33 34 32 32 32 32 32 33 33 33 33 32 32 33 33 34 34 35 35 35 35 36 35 35 35 34 34 34 34 34 34 34 35 35 34 34 35 35 35
41 41 41 40 40 40 40 40 39 39 39 39 38 38 38 38 38 38 37 37 37 37 36 36 36 35 35 34 34 33 33 32 32 32 32 32 32 32 33 33 33 32 32 33 33 33 33 34 34 34 34 36 36 35 35 35 34 34 34 33 34 34 34 34 33 33 35 35 35
41 41 41 41 40 40 40 39 39 39 39 39 39 39 38 38 38 37 37 37 37 37 36 36 36 36 35 34 34 33 33 32 32 32 33 33 33 33 33 34 33 33 33 34 35 35 35 34 34 34 34 36 36 36 36 35 35 34 34 34 33 33 34 34 33 34 34 35 35
41 41 41 41 40 40 40 39 39 39 39 39 39 39 38 38 38 37 37 37 36 36 36 36 35 35 35 34 34 34 33 32 32 32 33 34 34 34 34 35 35 35 35 36 38 39 39 38 36 35 34 36 36 36 36 36 35 35 34 34 34 34 33 34 34 34 34 34 35
41 41 41 41 40 40 40 39 39 39 39 39 39 39 38 38 38 37 37 36 36 36 36 35 35 35 36 35 34 34 33 33 32 32 32 33 34 35 35 35 36 36 36 38 40 41 41 42 41 38 35 34 35 36 36 35 35 35 35 34 34 34 34 33 33 34 34 34 34
41 41 41 41 40 40 40 40 40 39 39 39 39 39 39 38 38 37 37 36 36 36 36 35 35 36 37 35 34 34 33 33 33 32 32 32 34 34 35 35 36 36 37 39 41 42 43 43 43 41 38 34 33 33 33 32 34 34 34 34 34 34 33 33 34 34 34 34 34
41 41 41 40 40 40 40 40 39 39 39 39 39 39 39 38 38 37 37 37 36 36 36 36 36 36 37 35 35 35 35 35 34 33 33 33 33 34 34 35 36 37 38 40 42 43 43 44 44 43 41 37 33 32 32 31 33 34 34 34 34 34 34 33 32 32 31 32 33
41 41 41 40 40 40 40 40 39 39 39 39 39 39 39 38 38 38 38 37 37 37 38 38 38 38 37 36 36 37 37 36 36 35 35 35 34 34 35 36 36 37 39 41 42 43 44 44 44 44 43 41 36 33 32 32 33 33 33 33 32 32 31 31 31 30 30 30 31
41 41 41 40 40 40 40 40 40 40 40 40 39 39 39 39 39 38 38 38 38 39 39 39 39 38 38 37 37 37 37 37 37 36 36 35 35 35 36 37 36 37 39 42 42 43 44 44 44 44 44 43 39 36 33 33 33 33 33 31 30 30 30 30 29 29 29 30 30
41 41 41 40 40 40 40 40 40 40 40 40 39 39 39 39 39 39 39 39 39 40 40 40 38 38 37 37 36 36 37 37 37 36 36 36 36 36 36 37 37 37 39 42 43 43 43 44 44 44 44 44 42 39 36 35 34 34 34 33 31 30 30 30 30 30 30 30 30
41 41 41 40 40 40 40 40 40 40 40 40 40 40 40 40 40 40 40 40 40 40 40 39 37 37 37 36 35 35 36 36 36 36 36 36 36 36 36 36 37 38 39 42 43 43 43 43 43 43 44 44 43 40 37 36 36 35 35 35 34 32 32 32 31 31 30 31 31
41 41 41 40 40 40 40 40 40 40 40 40 40 40 40 41 41 41 41 41 40 40 39 38 37 36 36 35 35 35 35 36 36 37 37 37 36 36 36 36 37 38 40 42 42 43 43 43 43 43 43 43 42 40 38 37 36 36 36 36 35 35 35 34 33 32 32 31 31
41 41 40 40 40 40 40 40 40 40 40 40 40 41 41 41 41 40 40 40 40 39 38 37 37 36 36 35 35 35 35 36 36 36 36 36 36 36 36 36 37 39 40 42 42 43 43 43 43 43 43 43 42 40 39 38 37 36 36 36 36 36 36 36 36 35 34 33 33
41 41 41 40 41 40 40 40 41 41 41 41 41 41 41 41 40 40 40 40 40 39 38 38 37 36 36 36 35 35 35 35 36 36 36 36 36 36 36 36 36 38 40 42 42 43 43 43 43 43 43 43 41 39 38 37 37 37 36 36 36 36 36 36 37 37 37 36 36
42 41 41 41 41 41 41 41 41 41 41 41 41 41 41 40 40 40 40 40 39 39 38 38 37 37 36 36 35 35 35 35 35 35 36 36 36 35 35 35 35 37 40 41 42 42 43 43 43 43 43 41 40 38 38 37 37 37 36 36 36 36 37 37 37 37 37 37 37
43 42 42 41 41 41 41 41 41 41 40 40 40 40 40 40 40 40 40 40 39 38 37 37 37 37 36 36 35 36 36 35 35 36 36 36 36 35 34 34 34 36 39 41 42 42 42 42 43 43 42 40 38 37 37 37 37 36 36 36 36 37 37 37 37 37 37 37 37
43 43 42 42 42 41 41 41 41 40 40 40 40 40 40 40 40 40 40 40 39 38 37 37 37 37 36 36 36 36 35 36 36 36 36 36 36 36 35 34 33 35 37 40 41 42 42 42 42 42 41 39 37 37 36 36 36 36 36 36 36 36 37 37 37 37 37 37 38
44 43 43 42 42 42 41 41 40 40 40 40 40 40 40 40 40 40 40 40 39 38 37 37 37 37 37 37 36 36 35 35 36 36 36 36 36 36 36 34 33 34 36 40 41 42 42 42 42 42 41 40 37 37 36 36 35 35 36 36 36 36 36 37 37 37 37 37 39
44 44 43 43 42 42 41 40 40 40 40 40 39 39 39 39 40 40 40 40 39 38 38 37 37 37 37 38 37 36 35 35 35 36 36 36 36 37 37 35 34 34 36 39 41 42 42 42 42 42 41 40 38 37 36 36 35 35 35 35 35 36 36 36 36 36 36 36 38
45 44 43 43 43 42 41 41 40 40 40 40 40 40 40 40 40 40 40 39 38 38 38 38 37 37 37 38 37 36 35 35 35 35 35 36 36 37 38 36 35 34 35 38 40 42 42 42 42 42 42 40 38 37 36 36 35 34 34 35 35 35 35 35 35 36 36 35 36
MSLP
1015.55 1015.59 1015.59 1015.63 1015.63 1015.67 1015.71 1015.71 1015.71 1015.71 1015.75 1015.87 1015.99 1016.07 1016.15 1016.27 1016.43 1016.55 1016.59 1016.71 1016.87 1016.99 1017.15 1017.27 1017.39 1017.55 1017.67 1017.83 1017.99 1018.15 1018.27 1018.43 1018.51 1018.59 1018.67 1018.71 1018.87 1018.95 1019.03 1019.15 1019.27 1019.31 1019.39 1019.43 1019.47 1019.51 1019.55 1019.59 1019.63 1019.63 1019.63 1019.63 1019.63 1019.63 1019.59 1019.59 1019.63 1019.67 1019.67 1019.71 1019.71 1019.71 1019.71 1019.83 1019.87 1019.87 1019.87 1019.87 1019.87
1015.39 1015.43 1015.43 1015.47 1015.47 1015.51 1015.59 1015.59 1015.63 1015.63 1015.67 1015.71 1015.83 1015.91 1016.03 1016.15 1016.31 1016.43 1016.55 1016.63 1016.71 1016.87 1016.99 1017.15 1017.27 1017.43 1017.63 1017.75 1017.91 1018.07 1018.23 1018.39 1018.43 1018.55 1018.63 1018.71 1018.79 1018.87 1018.99 1019.11 1019.19 1019.27 1019.31 1019.35 1019.43 1019.47 1019.51 1019.55 1019.59 1019.59 1019.59 1019.59 1019.63 1019.67 1019.63 1019.63 1019.67 1019.67 1019.71 1019.79 1019.71 1019.71 1019.71 1019.83 1019.87 1019.83 1019.83 1019.87 1019.87
1015.27 1015.31 1015.35 1015.39 1015.43 1015.47 1015.55 1015.59 1015.59 1015.63 1015.67 1015.71 1015.71 1015.83 1015.95 1016.07 1016.19 1016.31 1016.43 1016.55 1016.63 1016.75 1016.95 1017.11 1017.23 1017.39 1017.55 1017.71 1017.87 1017.99 1018.15 1018.27 1018.39 1018.51 1018.59 1018.67 1018.71 1018.83 1018.91 1018.99 1019.11 1019.19 1019.27 1019.31 1019.39 1019.43 1019.43 1019.51 1019.55 1019.55 1019.59 1019.59 1019.63 1019.67 1019.67 1019.63 1019.63 1019.67 1019.75 1019.79 1019.71 1019.71 1019.75 1019.83 1019.83 1019.83 1019.83 1019.83 1019.87
1015.11 1015.19 1015.27 1015.27 1015.35 1015.39 1015.43 1015.47 1015.55 1015.59 1015.59 1015.67 1015.71 1015.83 1015.91 1015.99 1016.15 1016.27 1016.39 1016.51 1016.59 1016.75 1016.87 1017.03 1017.19 1017.35 1017.47 1017.63 1017.83 1017.99 1018.07 1018.15 1018.27 1018.43 1018.51 1018.63 1018.71 1018.75 1018.87 1018.95 1019.03 1019.15 1019.23 1019.27 1019.39 1019.43 1019.43 1019.47 1019.51 1019.51 1019.55 1019.59 1019.63 1019.67 1019.67 1019.63 1019.63 1019.67 1019.71 1019.71 1019.71 1019.71 1019.75 1019.79 1019.79 1019.79 1019.79 1019.83 1019.87
1014.99 1015.03 1015.07 1015.15 1015.15 1015.27 1015.27 1015.31 1015.43 1015.51 1015.55 1015.59 1015.71 1015.83 1015.95 1015.99 1016.11 1016.27 1016.39 1016.51 1016.63 1016.71 1016.87 1016.99 1017.15 1017.27 1017.43 1017.59 1017.75 1017.91 1017.99 1018.11 1018.19 1018.31 1018.47 1018.55 1018.63 1018.71 1018.79 1018.87 1018.99 1019.07 1019.19 1019.27 1019.35 1019.43 1019.43 1019.47 1019.47 1019.55 1019.59 1019.59 1019.59 1019.59 1019.63 1019.59 1019.59 1019.67 1019.71 1019.67 1019.67 1019.71 1019.71 1019.75 1019.79 1019.79 1019.79 1019.87 1019.87
1014.87 1014.87 1014.91 1014.99 1015.03 1015.11 1015.19 1015.27 1015.31 1015.43 1015.51 1015.59 1015.67 1015.83 1015.99 1016.03 1016.15 1016.27 1016.39 1016.51 1016.59 1016.67 1016.75 1016.87 1017.03 1017.19 1017.39 1017.55 1017.67 1017.83 1017.95 1018.07 1018.15 1018.27 1018.43 1018.51 1018.59 1018.67 1018.75 1018.87 1018.95 1019.03 1019.15 1019.23 1019.31 1019.39 1019.43 1019.51 1019.55 1019.55 1019.55 1019.59 1019.59 1019.59 1019.59 1019.59 1019.59 1019.67 1019.71 1019.71 1019.71 1019.71 1019.71 1019.79 1019.79 1019.79 1019.83 1019.91 1019.95
1014.71 1014.75 1014.83 1014.91 1014.95 1014.99 1015.07 1015.15 1015.23 1015.31 1015.43 1015.51 1015.67 1015.83 1015.91 1015.99 1016.11 1016.23 1016.35 1016.43 1016.55 1016.63 1016.71 1016.87 1016.99 1017.15 1017.31 1017.51 1017.63 1017.75 1017.87 1017.99 1018.15 1018.23 1018.31 1018.43 1018.51 1018.59 1018.71 1018.79 1018.87 1018.99 1019.07 1019.15 1019.27 1019.31 1019.43 1019.47 1019.51 1019.51 1019.55 1019.51 1019.51 1019.55 1019.55 1019.55 1019.59 1019.71 1019.75 1019.79 1019.71 1019.71 1019.75 1019.83 1019.83 1019.83 1019.87 1019.99 1020.03
1014.55 1014.59 1014.67 1014.71 1014.83 1014.87 1014.95 1015.03 1015.15 1015.19 1015.31 1015.43 1015.59 1015.67 1015.79 1015.87 1016.03 1016.15 1016.27 1016.39 1016.51 1016.59 1016.67 1016.79 1016.95 1017.11 1017.23 1017.43 1017.59 1017.71 1017.83 1017.95 1018.03 1018.15 1018.27 1018.31 1018.43 1018.55 1018.63 1018.71 1018.83 1018.91 1018.99 1019.11 1019.19 1019.27 1019.35 1019.43 1019.43 1019.47 1019.51 1019.51 1019.51 1019.51 1019.51 1019.59 1019.59 1019.71 1019.79 1019.83 1019.75 1019.71 1019.71 1019.79 1019.83 1019.87 1019.91 1019.99 1020.07
1014.43 1014.47 1014.51 1014.55 1014.67 1014.71 1014.83 1014.91 1014.99 1015.11 1015.23 1015.31 1015.43 1015.55 1015.63 1015.75 1015.91 1016.03 1016.15 1016.27 1016.39 1016.47 1016.59 1016.75 1016.87 1016.99 1017.15 1017.31 1017.47 1017.59 1017.71 1017.83 1017.91 1018.03 1018.15 1018.23 1018.31 1018.43 1018.55 1018.63 1018.71 1018.83 1018.91 1018.99 1019.03 1019.15 1019.27 1019.31 1019.35 1019.39 1019.43 1019.43 1019.43 1019.43 1019.47 1019.51 1019.59 1019.71 1019.75 1019.79 1019.75 1019.71 1019.71 1019.75 1019.79 1019.87 1019.95 1020.03 1020.15
1014.27 1014.31 1014.43 1014.51 1014.55 1014.63 1014.71 1014.83 1014.87 1014.99 1015.07 1015.19 1015.27 1015.39 1015.47 1015.59 1015.75 1015.87 1015.99 1016.15 1016.23 1016.39 1016.55 1016.67 1016.79 1016.95 1017.11 1017.23 1017.35 1017.47 1017.59 1017.71 1017.83 1017.91 1017.99 1018.15 1018.23 1018.31 1018.43 1018.55 1018.63 1018.71 1018.83 1018.87 1018.95 1019.03 1019.15 1019.23 1019.31 1019.35 1019.39 1019.35 1019.43 1019.43 1019.43 1019.47 1019.59 1019.71 1019.75 1019.75 1019.79 1019.83 1019.83 1019.79 1019.83 1019.87 1019.99 1020.07 1020.15
1014.07 1014.19 1014.27 1014.43 1014.47 1014.55 1014.67 1014.75 1014.87 1014.91 1014.99 1015.07 1015.19 1015.27 1015.39 1015.47 1015.59 1015.71 1015.87 1015.99 1016.19 1016.31 1016.43 1016.55 1016.67 1016.83 1016.99 1017.15 1017.27 1017.35 1017.47 1017.59 1017.71 1017.83 1017.91 1017.99 1018.11 1018.23 1018.31 1018.43 1018.51 1018.59 1018.71 1018.75 1018.87 1018.91 1018.99 1019.11 1019.19 1019.27 1019.31 1019.31 1019.35 1019.39 1019.43 1019.43 1019.55 1019.63 1019.71 1019.75 1019.75 1019.83 1019.87 1019.87 1019.87 1019.91 1019.99 1020.07 1020.15
1013.99 1014.11 1014.19 1014.27 1014.39 1014.51 1014.59 1014.71 1014.79 1014.87 1014.91 1014.99 1015.11 1015.19 1015.27 1015.35 1015.47 1015.59 1015.75 1015.91 1016.11 1016.19 1016.27 1016.43 1016.55 1016.71 1016.87 1016.99 1017.15 1017.23 1017.35 1017.47 1017.59 1017.71 1017.83 1017.91 1017.99 1018.11 1018.19 1018.27 1018.39 1018.47 1018.55 1018.67 1018.75 1018.87 1018.91 1019.03 1019.15 1019.23 1019.27 1019.31 1019.31 1019.31 1019.39 1019.43 1019.51 1019.59 1019.67 1019.71 1019.75 1019.83 1019.87 1019.91 1019.91 1019.95 1019.99 1020.03 1020.11
1013.87 1013.99 1014.15 1014.23 1014.35 1014.47 1014.55 1014.63 1014.71 1014.79 1014.87 1014.91 1014.99 1015.07 1015.15 1015.27 1015.39 1015.51 1015.67 1015.83 1015.91 1016.07 1016.19 1016.31 1016.43 1016.59 1016.75 1016.87 1016.99 1017.15 1017.27 1017.39 1017.51 1017.59 1017.71 1017.83 1017.91 1017.99 1018.11 1018.23 1018.27 1018.39 1018.47 1018.55 1018.63 1018.71 1018.83 1018.91 1018.99 1019.15 1019.19 1019.27 1019.27 1019.27 1019.31 1019.39 1019.43 1019.55 1019.63 1019.71 1019.79 1019.87 1019.87 1019.91 1019.91 1019.95 1019.99 1019.99 1020.03
1013.71 1013.87 1013.99 1014.15 1014.27 1014.39 1014.47 1014.55 1014.63 1014.71 1014.79 1014.87 1014.91 1014.99 1015.07 1015.19 1015.27 1015.39 1015.55 1015.67 1015.79 1015.95 1016.11 1016.27 1016.39 1016.51 1016.59 1016.71 1016.87 1017.03 1017.15 1017.27 1017.43 1017.55 1017.63 1017.75 1017.83 1017.91 1018.03 1018.11 1018.19 1018.27 1018.35 1018.43 1018.55 1018.59 1018.71 1018.83 1018.91 1018.99 1019.03 1019.15 1019.19 1019.19 1019.27 1019.31 1019.39 1019.47 1019.59 1019.67 1019.75 1019.83 1019.87 1019.87 1019.87 1019.91 1019.95 1019.99 1020.03
1013.59 1013.71 1013.79 1013.99 1014.11 1014.23 1014.35 1014.43 1014.51 1014.59 1014.71 1014.75 1014.83 1014.87 1014.99 1015.15 1015.19 1015.27 1015.43 1015.59 1015.71 1015.87 1015.99 1016.15 1016.27 1016.39 1016.47 1016.63 1016.79 1016.91 1017.03 1017.19 1017.31 1017.43 1017.59 1017.71 1017.75 1017.87 1017.91 1017.99 1018.07 1018.15 1018.23 1018.31 1018.43 1018.43 1018.55 1018.63 1018.75 1018.87 1018.91 1018.99 1019.07 1019.11 1019.15 1019.23 1019.31 1019.39 1019.47 1019.59 1019.63 1019.71 1019.75 1019.79 1019.87 1019.87 1019.91 1019.95 1019.99
1013.39 1013.51 1013.63 1013.75 1013.87 1013.99 1014.15 1014.23 1014.31 1014.43 1014.55 1014.63 1014.71 1014.79 1014.91 1015.03 1015.11 1015.19 1015.31 1015.47 1015.63 1015.79 1015.91 1016.07 1016.19 1016.31 1016.43 1016.51 1016.63 1016.79 1016.95 1017.11 1017.23 1017.35 1017.47 1017.59 1017.67 1017.75 1017.83 1017.87 1017.95 1018.03 1018.11 1018.19 1018.27 1018.35 1018.39 1018.47 1018.55 1018.71 1018.79 1018.87 1018.95 1018.99 1019.03 1019.11 1019.19 1019.27 1019.39 1019.43 1019.51 1019.59 1019.67 1019.71 1019.75 1019.79 1019.83 1019.87 1019.95
1013.15 1013.27 1013.43 1013.55 1013.63 1013.75 1013.87 1013.99 1014.11 1014.23 1014.31 1014.43 1014.55 1014.67 1014.79 1014.91 1014.99 1015.15 1015.23 1015.31 1015.51 1015.71 1015.83 1015.95 1016.07 1016.23 1016.35 1016.43 1016.55 1016.71 1016.83 1016.95 1017.11 1017.23 1017.31 1017.43 1017.51 1017.59 1017.67 1017.71 1017.83 1017.87 1017.95 1018.03 1018.15 1018.23 1018.27 1018.35 1018.43 1018.55 1018.63 1018.71 1018.79 1018.87 1018.91 1018.95 1019.07 1019.15 1019.23 1019.31 1019.39 1019.43 1019.51 1019.59 1019.63 1019.71 1019.75 1019.83 1019.83
1012.91 1012.99 1013.15 1013.27 1013.39 1013.51 1013.59 1013.71 1013.87 1013.99 1014.11 1014.27 1014.39 1014.47 1014.59 1014.71 1014.87 1014.99 1015.07 1015.19 1015.39 1015.59 1015.71 1015.87 1015.99 1016.11 1016.23 1016.35 1016.47 1016.55 1016.67 1016.79 1016.91 1017.03 1017.15 1017.23 1017.31 1017.43 1017.51 1017.59 1017.67 1017.71 1017.83 1017.91 1017.99 1018.07 1018.15 1018.27 1018.31 1018.43 1018.51 1018.59 1018.67 1018.75 1018.83 1018.87 1018.95 1019.03 1019.11 1019.19 1019.27 1019.35 1019.43 1019.47 1019.55 1019.59 1019.63 1019.71 1019.71
1012.59 1012.71 1012.87 1012.99 1013.07 1013.19 1013.31 1013.43 1013.59 1013.75 1013.87 1013.99 1014.15 1014.27 1014.43 1014.55 1014.71 1014.87 1014.99 1015.15 1015.27 1015.39 1015.59 1015.75 1015.91 1016.03 1016.15 1016.23 1016.35 1016.43 1016.51 1016.63 1016.75 1016.87 1016.99 1017.07 1017.15 1017.27 1017.35 1017.43 1017.55 1017.63 1017.71 1017.75 1017.87 1017.95 1017.99 1018.11 1018.19 1018.27 1018.43 1018.55 1018.59 1018.71 1018.75 1018.83 1018.87 1018.95 1019.03 1019.11 1019.19 1019.27 1019.35 1019.43 1019.47 1019.55 1019.59 1019.59 1019.63
1012.27 1012.43 1012.55 1012.59 1012.71 1012.87 1013.07 1013.23 1013.35 1013.51 1013.67 1013.83 1013.99 1014.11 1014.27 1014.39 1014.55 1014.71 1014.87 1014.99 1015.11 1015.27 1015.43 1015.59 1015.79 1015.95 1016.03 1016.15 1016.27 1016.35 1016.43 1016.51 1016.67 1016.79 1016.87 1016.99 1017.07 1017.15 1017.23 1017.31 1017.43 1017.51 1017.59 1017.63 1017.71 1017.83 1017.91 1017.95 1018.07 1018.19 1018.27 1018.43 1018.55 1018.63 1018.71 1018.79 1018.87 1018.91 1018.99 1019.03 1019.11 1019.15 1019.23 1019.27 1019.39 1019.43 1019.51 1019.55 1019.59
1011.95 1012.03 1012.15 1012.27 1012.43 1012.63 1012.79 1012.99 1013.15 1013.31 1013.47 1013.67 1013.79 1013.91 1014.03 1014.23 1014.39 1014.51 1014.63 1014.79 1014.95 1015.15 1015.31 1015.47 1015.59 1015.75 1015.91 1016.03 1016.15 1016.27 1016.35 1016.47 1016.59 1016.71 1016.83 1016.91 1016.99 1017.03 1017.15 1017.23 1017.31 1017.43 1017.47 1017.55 1017.59 1017.71 1017.79 1017.87 1017.95 1018.03 1018.19 1018.27 1018.43 1018.51 1018.59 1018.71 1018.79 1018.87 1018.91 1018.99 1018.99 1019.07 1019.15 1019.19 1019.27 1019.31 1019.39 1019.43 1019.51
1011.59 1011.71 1011.87 1011.99 1012.23 1012.39 1012.55 1012.75 1012.99 1013.15 1013.35 1013.47 1013.59 1013.71 1013.87 1014.03 1014.19 1014.31 1014.47 1014.67 1014.87 1015.03 1015.19 1015.31 1015.43 1015.59 1015.75 1015.87 1016.03 1016.15 1016.27 1016.39 1016.55 1016.67 1016.71 1016.83 1016.87 1016.99 1017.03 1017.15 1017.23 1017.31 1017.39 1017.43 1017.47 1017.59 1017.63 1017.71 1017.79 1017.87 1017.99 1018.15 1018.23 1018.35 1018.47 1018.55 1018.67 1018.75 1018.83 1018.87 1018.91 1018.99 1018.99 1019.07 1019.11 1019.15 1019.23 1019.31 1019.39
1011.27 1011.47 1011.71 1011.87 1012.03 1012.23 1012.43 1012.59 1012.83 1012.99 1013.15 1013.27 1013.43 1013.59 1013.75 1013.87 1014.03 1014.19 1014.39 1014.59 1014.75 1014.87 1014.99 1015.15 1015.27 1015.43 1015.59 1015.71 1015.87 1016.07 1016.23 1016.35 1016.51 1016.59 1016.67 1016.75 1016.87 1016.95 1016.99 1017.07 1017.15 1017.23 1017.27 1017.31 1017.35 1017.43 1017.51 1017.59 1017.63 1017.71 1017.83 1017.91 1018.03 1018.15 1018.27 1018.39 1018.47 1018.55 1018.67 1018.71 1018.79 1018.87 1018.91 1018.99 1018.99 1019.03 1019.07 1019.11 1019.19
1011.11 1011.35 1011.55 1011.71 1011.91 1012.11 1012.27 1012.43 1012.67 1012.83 1012.99 1013.11 1013.27 1013.43 1013.59 1013.71 1013.87 1014.07 1014.27 1014.43 1014.55 1014.71 1014.87 1014.99 1015.15 1015.31 1015.47 1015.63 1015.83 1015.99 1016.15 1016.27 1016.43 1016.55 1016.59 1016.71 1016.79 1016.87 1016.95 1016.99 1017.03 1017.07 1017.11 1017.15 1017.23 1017.27 1017.31 1017.39 1017.47 1017.55 1017.59 1017.71 1017.83 1017.95 1018.03 1018.15 1018.23 1018.35 1018.43 1018.55 1018.63 1018.71 1018.75 1018.83 1018.87 1018.91 1018.95 1018.99 1018.99
1010.95 1011.15 1011.31 1011.51 1011.71 1011.87 1012.03 1012.23 1012.43 1012.55 1012.71 1012.87 1012.99 1013.19 1013.39 1013.59 1013.75 1013.91 1014.11 1014.27 1014.39 1014.55 1014.71 1014.87 1015.03 1015.19 1015.39 1015.59 1015.71 1015.87 1015.99 1016.15 1016.27 1016.39 1016.51 1016.55 1016.67 1016.75 1016.83 1016.87 1016.87 1016.91 1016.99 1017.03 1016.99 1016.99 1017.07 1017.15 1017.23 1017.31 1017.43 1017.51 1017.59 1017.71 1017.83 1017.95 1018.03 1018.15 1018.23 1018.31 1018.39 1018.47 1018.55 1018.63 1018.71 1018.71 1018.75 1018.79 1018.87
1010.75 1010.95 1011.15 1011.27 1011.43 1011.63 1011.83 1011.99 1012.11 1012.27 1012.43 1012.67 1012.87 1013.03 1013.19 1013.39 1013.59 1013.75 1013.91 1014.11 1014.27 1014.39 1014.55 1014.71 1014.91 1015.07 1015.23 1015.39 1015.55 1015.71 1015.87 1015.99 1016.11 1016.27 1016.39 1016.43 1016.55 1016.59 1016.67 1016.71 1016.71 1016.79 1016.83 1016.83 1016.79 1016.79 1016.83 1016.87 1016.99 1017.11 1017.23 1017.31 1017.43 1017.51 1017.63 1017.71 1017.83 1017.91 1017.99 1018.11 1018.15 1018.27 1018.31 1018.39 1018.43 1018.51 1018.55 1018.63 1018.63
1010.55 1010.71 1010.87 1011.03 1011.23 1011.39 1011.55 1011.67 1011.87 1012.07 1012.27 1012.47 1012.67 1012.83 1012.99 1013.15 1013.39 1013.59 1013.75 1013.91 1014.11 1014.27 1014.43 1014.59 1014.75 1014.87 1014.99 1015.19 1015.39 1015.55 1015.71 1015.79 1015.95 1016.07 1016.23 1016.27 1016.35 1016.43 1016.47 1016.51 1016.51 1016.55 1016.59 1016.59 1016.55 1016.55 1016.55 1016.63 1016.71 1016.83 1016.99 1017.19 1017.27 1017.39 1017.47 1017.59 1017.67 1017.75 1017.87 1017.91 1017.99 1018.03 1018.07 1018.15 1018.15 1018.23 1018.27 1018.39 1018.43
1010.27 1010.43 1010.59 1010.83 1010.99 1011.15 1011.27 1011.43 1011.67 1011.87 1012.03 1012.23 1012.43 1012.55 1012.75 1012.99 1013.19 1013.43 1013.59 1013.75 1013.95 1014.15 1014.27 1014.43 1014.55 1014.67 1014.83 1015.03 1015.15 1015.27 1015.43 1015.59 1015.75 1015.87 1015.99 1016.11 1016.15 1016.19 1016.23 1016.27 1016.27 1016.31 1016.31 1016.31 1016.27 1016.31 1016.31 1016.35 1016.43 1016.55 1016.71 1016.99 1017.15 1017.27 1017.35 1017.47 1017.55 1017.59 1017.67 1017.71 1017.75 1017.79 1017.87 1017.87 1017.95 1018.03 1018.15 1018.15 1018.23
1009.99 1010.15 1010.39 1010.59 1010.75 1010.87 1011.03 1011.27 1011.43 1011.59 1011.71 1011.95 1012.15 1012.35 1012.55 1012.83 1012.99 1013.19 1013.39 1013.59 1013.75 1013.95 1014.07 1014.19 1014.31 1014.51 1014.67 1014.79 1014.87 1014.99 1015.19 1015.35 1015.47 1015.63 1015.75 1015.87 1015.91 1015.95 1015.99 1016.03 1016.07 1016.07 1016.11 1016.11 1016.07 1016.07 1016.11 1016.15 1016.23 1016.31 1016.43 1016.67 1016.99 1017.15 1017.23 1017.31 1017.39 1017.47 1017.51 1017.55 1017.59 1017.63 1017.71 1017.71 1017.79 1017.87 1017.95 1017.99 1018.07
1009.75 1009.95 1010.15 1010.35 1010.47 1010.67 1010.83 1010.99 1011.11 1011.27 1011.47 1011.71 1011.95 1012.19 1012.43 1012.59 1012.79 1012.95 1013.15 1013.31 1013.43 1013.59 1013.71 1013.91 1014.11 1014.27 1014.43 1014.51 1014.63 1014.83 1014.99 1015.11 1015.23 1015.39 1015.51 1015.59 1015.67 1015.71 1015.71 1015.75 1015.83 1015.87 1015.87 1015.87 1015.87 1015.87 1015.91 1015.99 1016.03 1016.11 1016.23 1016.39 1016.67 1016.91 1017.07 1017.15 1017.23 1017.27 1017.35 1017.43 1017.47 1017.55 1017.59 1017.59 1017.67 1017.71 1017.75 1017.83 1017.87
1009.59 1009.75 1009.91 1010.11 1010.27 1010.43 1010.55 1010.71 1010.87 1011.07 1011.31 1011.55 1011.75 1011.95 1012.15 1012.31 1012.47 1012.63 1012.79 1012.99 1013.15 1013.27 1013.47 1013.67 1013.87 1013.99 1014.15 1014.27 1014.43 1014.59 1014.71 1014.83 1014.99 1015.11 1015.19 1015.27 1015.31 1015.39 1015.43 1015.51 1015.59 1015.59 1015.63 1015.63 1015.63 1015.67 1015.71 1015.79 1015.87 1015.95 1016.03 1016.11 1016.35 1016.59 1016.79 1016.91 1016.99 1017.11 1017.15 1017.23 1017.31 1017.35 1017.43 1017.43 1017.47 1017.51 1017.59 1017.63 1017.71
1009.43 1009.59 1009.71 1009.87 1010.03 1010.19 1010.35 1010.55 1010.75 1010.95 1011.15 1011.35 1011.51 1011.67 1011.83 1011.99 1012.15 1012.31 1012.51 1012.71 1012.91 1013.15 1013.31 1013.51 1013.67 1013.83 1013.95 1014.11 1014.27 1014.39 1014.47 1014.59 1014.71 1014.79 1014.87 1014.99 1015.07 1015.15 1015.23 1015.27 1015.35 1015.43 1015.43 1015.43 1015.43 1015.47 1015.55 1015.59 1015.71 1015.79 1015.87 1015.99 1016.11 1016.27 1016.47 1016.63 1016.79 1016.87 1016.95 1016.99 1017.03 1017.15 1017.23 1017.27 1017.27 1017.27 1017.35 1017.39 1017.43
1009.31 1009.43 1009.59 1009.71 1009.87 1009.99 1010.19 1010.43 1010.59 1010.79 1010.99 1011.15 1011.27 1011.43 1011.55 1011.71 1011.87 1012.11 1012.31 1012.55 1012.71 1012.91 1013.07 1013.19 1013.35 1013.55 1013.71 1013.87 1013.99 1014.15 1014.23 1014.31 1014.43 1014.55 1014.63 1014.75 1014.87 1014.95 1014.99 1015.07 1015.15 1015.19 1015.23 1015.23 1015.27 1015.27 1015.35 1015.43 1015.55 1015.63 1015.71 1015.83 1015.95 1016.11 1016.27 1016.43 1016.55 1016.63 1016.71 1016.75 1016.83 1016.87 1016.91 1016.99 1016.99 1017.03 1017.11 1017.15 1017.15
1009.19 1009.27 1009.43 1009.55 1009.67 1009.87 1010.07 1010.27 1010.43 1010.59 1010.75 1010.91 1011.03 1011.15 1011.27 1011.47 1011.71 1011.95 1012.11 1012.27 1012.43 1012.59 1012.75 1012.87 1013.07 1013.23 1013.39 1013.55 1013.71 1013.87 1013.99 1014.07 1014.15 1014.27 1014.43 1014.55 1014.63 1014.75 1014.83 1014.87 1014.87 1014.91 1014.99 1015.03 1015.07 1015.11 1015.15 1015.27 1015.35 1015.43 1015.59 1015.67 1015.79 1015.91 1016.07 1016.23 1016.31 1016.43 1016.51 1016.55 1016.59 1016.67 1016.71 1016.71 1016.75 1016.79 1016.83 1016.87 1016.95
1008.99 1009.11 1009.19 1009.31 1009.47 1009.71 1009.91 1010.07 1010.27 1010.43 1010.55 1010.71 1010.83 1010.95 1011.11 1011.27 1011.43 1011.59 1011.75 1011.95 1012.15 1012.39 1012.55 1012.71 1012.87 1013.03 1013.23 1013.39 1013.51 1013.63 1013.75 1013.87 1013.99 1014.11 1014.23 1014.35 1014.47 1014.55 1014.55 1014.59 1014.67 1014.71 1014.79 1014.87 1014.87 1014.95 1014.99 1015.03 1015.15 1015.27 1015.43 1015.59 1015.71 1015.79 1015.91 1016.03 1016.15 1016.23 1016.27 1016.39 1016.43 1016.47 1016.51 1016.55 1016.55 1016.55 1016.59 1016.63 1016.67
1008.71 1008.87 1008.99 1009.15 1009.27 1009.51 1009.71 1009.87 1010.03 1010.19 1010.31 1010.43 1010.55 1010.71 1010.87 1011.03 1011.19 1011.35 1011.51 1011.75 1011.99 1012.23 1012.43 1012.55 1012.75 1012.91 1013.11 1013.23 1013.31 1013.43 1013.47 1013.59 1013.71 1013.87 1013.99 1014.15 1014.27 1014.31 1014.39 1014.43 1014.51 1014.55 1014.63 1014.67 1014.71 1014.75 1014.83 1014.91 1014.99 1015.15 1015.27 1015.43 1015.59 1015.67 1015.75 1015.87 1015.95 1016.03 1016.11 1016.19 1016.27 1016.27 1016.35 1016.35 1016.39 1016.35 1016.39 1016.43 1016.43
1008.43 1008.55 1008.71 1008.87 1009.07 1009.27 1009.43 1009.59 1009.79 1009.95 1010.03 1010.15 1010.27 1010.43 1010.59 1010.79 1010.99 1011.19 1011.39 1011.59 1011.83 1011.99 1012.15 1012.31 1012.51 1012.67 1012.75 1012.87 1012.99 1013.11 1013.19 1013.31 1013.47 1013.63 1013.75 1013.87 1013.99 1014.11 1014.19 1014.27 1014.35 1014.43 1014.47 1014.51 1014.55 1014.63 1014.71 1014.79 1014.87 1014.99 1015.15 1015.31 1015.43 1015.55 1015.67 1015.75 1015.83 1015.87 1015.95 1016.03 1016.07 1016.15 1016.19 1016.19 1016.23 1016.23 1016.19 1016.19 1016.23
1008.15 1008.27 1008.43 1008.59 1008.79 1008.99 1009.19 1009.35 1009.55 1009.67 1009.79 1009.91 1010.03 1010.19 1010.35 1010.55 1010.79 1010.99 1011.19 1011.35 1011.55 1011.71 1011.87 1012.07 1012.19 1012.27 1012.43 1012.55 1012.71 1012.87 1012.99 1013.11 1013.27 1013.43 1013.55 1013.63 1013.75 1013.87 1013.99 1014.11 1014.19 1014.27 1014.35 1014.39 1014.43 1014.47 1014.55 1014.63 1014.71 1014.87 1014.99 1015.15 1015.27 1015.43 1015.51 1015.59 1015.71 1015.75 1015.83 1015.87 1015.91 1015.99 1016.03 1016.07 1016.07 1016.07 1016.03 1016.03 1016.03
1007.79 1007.99 1008.15 1008.31 1008.51 1008.71 1008.95 1009.15 1009.27 1009.35 1009.51 1009.71 1009.87 1010.03 1010.23 1010.43 1010.55 1010.71 1010.87 1011.07 1011.23 1011.39 1011.59 1011.75 1011.91 1012.03 1012.15 1012.39 1012.55 1012.71 1012.87 1012.95 1013.03 1013.15 1013.27 1013.43 1013.51 1013.67 1013.83 1013.95 1014.07 1014.15 1014.23 1014.27 1014.27 1014.31 1014.43 1014.47 1014.59 1014.71 1014.83 1014.99 1015.15 1015.27 1015.39 1015.51 1015.59 1015.63 1015.71 1015.71 1015.79 1015.83 1015.87 1015.91 1015.91 1015.91 1015.87 1015.87 1015.87
1007.51 1007.71 1007.91 1008.11 1008.27 1008.47 1008.71 1008.87 1008.99 1009.15 1009.27 1009.51 1009.71 1009.87 1009.99 1010.19 1010.31 1010.51 1010.71 1010.87 1011.03 1011.19 1011.39 1011.55 1011.67 1011.87 1012.03 1012.19 1012.39 1012.55 1012.67 1012.79 1012.87 1012.99 1013.11 1013.19 1013.35 1013.51 1013.63 1013.79 1013.91 1013.99 1014.07 1014.11 1014.15 1014.15 1014.23 1014.31 1014.43 1014.55 1014.67 1014.87 1015.03 1015.15 1015.27 1015.39 1015.43 1015.51 1015.59 1015.59 1015.67 1015.71 1015.71 1015.71 1015.75 1015.75 1015.75 1015.75 1015.71
1007.31 1007.55 1007.71 1007.87 1008.07 1008.27 1008.43 1008.59 1008.79 1008.99 1009.15 1009.31 1009.47 1009.59 1009.75 1009.95 1010.15 1010.39 1010.55 1010.71 1010.91 1011.07 1011.23 1011.39 1011.55 1011.71 1011.87 1011.99 1012.15 1012.31 1012.51 1012.63 1012.71 1012.87 1012.95 1013.07 1013.23 1013.35 1013.47 1013.59 1013.75 1013.87 1013.91 1013.95 1013.99 1013.99 1014.07 1014.15 1014.27 1014.39 1014.51 1014.71 1014.87 1014.99 1015.15 1015.23 1015.31 1015.35 1015.43 1015.43 1015.51 1015.59 1015.59 1015.59 1015.59 1015.59 1015.59 1015.59 1015.59
Wind_Speed
6 5 5 4 4 4 4 3 3 3 3 3 3 4 4 4 4 4 4 4 4 4 4 4 4 4 5 6 6 6 5 5 4 4 3 3 4 4 5 4 4 3 3 2 2 2 1 1 1 1 1 0 0 0 0 0 1 1 1 0 0 0 0 1 0 1 1 2 1
7 6 6 5 5 4 3 3 2 2 2 2 2 3 3 3 3 3 3 3 3 3 3 3 4 5 5 6 6 6 5 5 4 4 3 3 4 4 5 4 4 3 3 2 2 1 1 1 1 1 1 1 1 1 1 1 1 1 0 0 1 0 1 1 1 1 1 2 1
7 6 5 5 4 3 3 3 2 2 2 2 2 2 3 3 3 3 3 3 3 3 3 3 4 5 6 6 6 5 5 5 5 4 4 3 3 4 5 4 4 3 3 2 1 1 1 1 1 1 1 1 1 1 1 1 1 1 1 1 1 1 1 1 0 0 1 1 1
7 6 6 5 5 4 4 3 3 3 2 2 2 2 2 2 2 2 3 3 3 3 3 3 4 5 6 6 5 5 5 5 5 5 4 4 4 4 5 4 4 4 3 2 2 1 1 1 1 1 1 1 1 1 1 1 2 2 1 1 1 1 1 0 0 0 1 1 1
7 7 6 6 6 5 4 4 3 3 3 2 2 2 2 2 2 2 2 3 3 3 3 4 4 4 5 6 6 6 5 5 6 5 5 4 4 4 5 5 4 4 4 3 3 2 1 1 0 0 1 1 1 1 1 1 1 1 1 0 0 1 1 1 0 1 1 1 1
7 7 6 5 5 4 4 3 4 3 3 3 3 3 3 2 2 2 3 3 3 4 4 5 5 5 5 6 6 6 5 5 5 5 5 5 4 5 5 5 4 4 4 4 3 2 2 1 0 0 1 1 1 1 0 1 1 1 1 0 0 0 1 1 0 1 1 1 1
7 7 7 6 6 5 4 4 4 3 3 4 5 5 5 4 4 4 4 3 3 4 4 5 6 5 5 6 6 6 6 5 5 5 5 5 5 5 5 5 4 4 4 4 4 3 2 2 1 1 1 1 1 0 0 1 2 1 1 0 0 0 1 1 1 1 1 1 1
7 7 8 7 7 6 6 5 5 4 4 4 6 6 6 6 6 5 5 4 4 4 4 5 6 6 6 6 6 6 6 6 5 5 5 5 5 5 5 5 4 4 4 4 4 4 3 2 1 1 1 1 1 1 1 1 2 1 1 0 0 0 1 1 1 1 1 1 1
7 7 8 7 7 7 7 6 6 6 6 6 6 7 7 7 7 7 6 5 4 4 4 5 6 7 7 6 6 6 6 6 6 6 5 5 5 5 5 5 5 4 4 4 4 4 4 3 2 1 1 1 1 1 1 2 2 2 1 1 0 0 0 1 1 2 1 1 1
8 8 8 8 8 7 7 7 7 7 7 7 7 7 7 8 8 7 6 5 5 5 5 5 6 7 7 7 6 6 6 6 6 6 6 5 5 5 5 5 5 5 4 3 4 4 4 3 2 2 1 1 1 1 1 2 3 2 1 1 0 0 1 0 1 2 2 1 1
9 9 8 8 8 8 7 7 7 7 7 7 7 7 7 8 8 7 6 5 5 6 6 6 7 7 7 7 6 6 6 5 6 6 6 5 5 5 5 5 6 5 5 4 4 4 4 3 3 3 2 1 1 1 1 2 3 2 2 1 0 0 1 1 1 1 2 2 2
8 8 8 7 8 8 7 7 7 7 7 7 7 7 7 7 7 7 6 6 6 7 7 6 7 7 7 6 6 6 6 6 6 6 6 5 5 5 5 5 6 6 5 5 4 4 3 3 4 3 3 2 2 1 2 2 3 2 2 1 1 0 0 1 0 1 1 2 2
8 8 8 8 8 8 8 8 7 6 7 7 7 7 7 7 7 7 8 8 8 7 6 6 7 7 7 6 6 6 6 6 6 6 6 5 5 5 5 5 6 6 6 5 5 4 4 4 4 4 4 3 2 2 2 2 3 3 2 2 1 1 1 1 1 1 0 1 2
8 8 8 8 8 8 8 8 7 6 7 7 7 7 6 6 7 7 8 8 7 7 6 6 6 6 6 7 6 6 7 6 6 6 6 6 6 5 5 5 5 6 6 5 5 5 5 4 5 5 5 4 4 3 3 3 3 3 3 3 3 3 2 2 2 1 0 1 1
9 9 9 9 9 9 8 8 7 7 7 7 7 6 6 6 6 7 7 7 7 7 6 6 6 6 7 7 7 7 7 7 7 7 7 6 6 6 6 6 6 6 6 5 5 5 5 5 5 5 5 5 4 4 4 4 4 3 3 3 3 3 3 3 2 2 1 2 2
9 9 9 9 10 9 9 8 7 7 7 7 7 6 6 6 6 6 7 7 7 6 6 7 6 6 6 7 7 7 7 7 7 7 7 7 7 7 7 7 6 6 6 6 5 5 5 5 5 5 4 4 4 5 5 5 4 4 4 4 4 4 3 3 3 3 3 3 3
10 10 10 10 11 10 10 9 8 7 7 8 7 7 7 6 6 6 7 7 6 6 6 7 7 6 6 7 7 7 7 7 7 8 8 8 8 8 7 7 7 7 6 6 6 6 5 5 5 4 4 4 4 4 4 5 5 5 5 5 5 4 4 4 4 4 4 4 4
11 11 11 11 11 12 11 10 9 8 8 9 8 8 7 7 6 7 7 7 7 7 7 7 7 6 6 7 6 6 7 7 7 7 8 8 8 8 8 7 7 7 7 6 6 6 6 6 5 5 4 4 4 4 4 4 4 5 5 6 6 6 6 6 5 5 5 5 6
12 12 12 12 12 12 12 11 10 10 9 9 8 8 8 8 8 7 7 7 8 8 8 8 7 7 7 7 7 7 7 7 7 7 7 7 7 7 7 7 7 7 7 7 7 6 6 6 6 6 5 5 5 5 5 4 5 5 5 6 6 6 6 6 6 6 6 6 7
13 13 13 13 13 13 12 12 11 10 9 8 8 9 9 9 9 9 8 8 8 8 8 8 8 8 7 8 7 7 7 6 7 7 7 7 7 7 7 7 7 7 7 7 7 7 6 7 7 7 7 7 6 6 6 6 5 5 5 5 6 6 7 7 7 7 7 7 7
14 14 13 13 13 12 12 11 10 9 9 9 9 10 10 10 9 9 9 9 9 8 9 9 9 9 9 8 8 8 7 6 6 7 7 6 7 7 7 7 7 6 6 7 7 7 7 7 7 7 8 8 8 7 7 7 6 6 6 6 6 6 7 7 7 7 7 8 8
14 13 12 12 12 12 11 11 10 9 9 9 10 10 10 10 10 10 9 9 9 9 9 9 9 9 9 9 9 8 7 6 6 6 6 6 6 6 6 6 6 7 7 7 7 7 7 7 8 8 8 9 8 8 8 8 7 7 7 7 7 7 7 7 7 7 7 8 8
13 12 11 11 11 11 11 10 10 10 10 10 10 10 10 10 10 9 9 9 9 9 8 8 8 9 9 8 8 8 7 6 6 6 6 6 6 6 6 6 7 7 7 7 7 7 7 7 8 8 8 8 9 9 9 9 8 8 7 8 8 8 7 7 6 7 7 7 8
12 11 10 9 10 11 11 10 10 10 11 11 10 10 10 10 10 9 9 9 10 9 9 8 7 8 8 8 8 8 7 7 7 7 7 7 6 6 6 6 7 7 7 7 7 8 8 7 7 7 8 8 9 9 9 9 8 8 8 8 8 8 8 7 7 7 7 8 7
11 11 10 10 11 11 11 11 12 12 12 11 11 10 10 10 10 10 10 10 10 10 9 8 7 7 7 7 8 8 8 8 8 8 8 8 8 7 7 7 7 7 7 7 11 13 13 11 9 7 7 8 8 8 8 8 8 8 8 8 8 8 8 8 8 8 8 8 8
11 11 11 11 11 12 12 12 13 12 12 11 11 11 10 10 10 10 10 10 10 9 9 8 8 8 8 7 8 8 8 8 8 8 8 8 8 8 8 7 7 7 7 9 14 17 17 16 14 11 8 6 7 8 8 8 8 8 8 8 8 8 8 8 8 8 8 8 8
11 12 12 12 12 12 13 13 12 12 12 11 11 11 11 10 9 10 10 10 9 9 8 8 7 8 8 7 8 9 8 7 7 8 8 8 9 9 9 8 7 6 7 11 15 17 18 18 17 15 11 7 7 7 6 6 7 8 8 8 8 8 8 8 9 8 8 8 8
12 12 12 12 12 13 13 12 12 12 12 12 12 11 11 10 10 10 10 10 9 8 7 7 7 7 6 6 8 9 9 9 8 8 8 8 9 9 9 8 7 8 9 13 16 17 17 18 18 17 14 10 7 6 6 5 6 7 7 8 8 8 9 9 7 7 7 7 7
13 12 12 13 13 13 13 13 13 13 13 12 12 11 11 11 11 11 11 10 10 9 8 7 7 6 6 7 8 9 10 10 9 8 8 9 9 9 9 9 8 9 12 15 16 16 17 17 17 17 16 13 8 5 5 5 5 6 6 6 6 7 7 7 6 6 6 6 6
13 12 13 13 13 13 13 13 14 13 12 11 11 11 11 11 11 11 11 11 11 11 10 8 8 8 8 9 8 9 9 10 9 9 9 10 10 10 10 10 9 10 12 16 16 16 16 16 17 17 17 16 10 7 5 5 5 5 5 5 5 6 6 6 6 6 6 6 6
12 12 13 13 13 13 13 13 13 12 12 11 11 12 12 12 12 12 12 12 11 11 10 9 9 10 10 9 8 9 9 10 10 10 10 11 11 11 11 10 10 10 12 16 16 16 16 16 16 17 17 17 13 9 6 6 6 6 6 6 6 7 7 7 7 7 8 7 7
12 12 13 13 13 13 13 12 12 12 12 12 12 13 13 13 13 12 12 11 11 11 11 11 11 11 11 9 9 9 9 10 10 10 11 11 11 11 10 10 10 11 12 16 16 16 16 16 17 17 17 18 14 10 8 7 7 7 7 7 8 8 8 7 7 8 8 9 8
12 12 13 13 13 13 12 12 12 12 12 13 13 13 13 13 12 12 11 11 11 11 11 11 12 12 11 11 10 10 10 10 11 11 11 11 10 10 10 10 9 11 13 16 17 17 17 17 17 17 17 18 14 10 8 8 7 7 7 8 8 9 9 9 8 8 9 9 8
12 12 13 13 13 12 12 12 12 12 13 13 13 13 13 13 13 12 12 11 10 10 10 10 10 10 10 10 10 10 10 10 10 11 11 11 10 10 10 9 8 10 13 16 17 17 17 17 17 17 17 17 13 9 8 8 7 7 7 8 8 8 9 9 9 9 9 9 8
13 13 13 13 13 12 12 13 13 13 13 14 14 14 13 13 13 13 12 11 10 9 9 9 8 8 8 8 9 9 10 10 10 10 10 10 10 10 11 10 8 10 14 16 17 17 17 17 17 17 17 15 10 8 7 8 8 8 8 9 9 9 9 9 9 9 9 9 8
14 14 14 13 13 13 13 13 13 14 14 14 14 14 14 13 13 12 11 11 10 10 9 9 9 9 9 8 8 9 10 10 10 10 11 10 11 11 11 10 9 11 14 16 17 17 17 17 17 17 16 12 8 6 6 7 7 8 9 9 9 9 9 9 8 8 8 8 8
14 14 14 14 13 13 14 14 14 14 15 15 15 14 14 13 12 11 10 11 10 10 10 10 10 10 11 11 9 9 9 10 10 11 11 11 11 11 10 9 8 10 13 16 17 17 17 17 17 16 14 10 7 6 6 6 6 7 8 9 9 9 9 8 8 8 8 8 8
15 14 14 14 14 14 14 14 15 15 15 15 14 14 13 12 11 11 11 11 11 11 11 10 11 11 11 11 10 10 9 9 10 11 11 11 11 11 10 9 8 9 11 15 16 17 17 17 17 16 14 8 6 6 5 5 5 6 7 7 8 8 8 7 7 7 8 9 10
15 14 14 14 14 14 14 14 15 15 15 14 13 13 12 11 10 10 10 11 11 11 11 11 11 11 10 10 9 9 9 9 10 10 11 11 11 11 10 9 8 8 10 13 16 17 17 17 17 17 15 10 7 6 5 5 6 6 6 6 6 7 7 7 6 6 7 8 12
14 14 14 14 14 14 14 14 14 14 13 13 13 12 12 11 10 10 10 10 9 10 10 10 10 10 9 10 9 9 9 9 9 10 10 10 11 11 11 10 8 8 9 13 15 16 17 17 17 17 15 10 7 5 5 5 5 6 7 6 6 6 6 6 6 6 6 7 11
13 13 14 14 14 14 14 14 14 13 12 12 13 12 11 11 10 9 9 9 9 9 9 9 9 9 9 10 9 9 9 8 9 9 9 10 10 11 11 10 8 7 8 11 14 16 17 17 17 17 15 10 7 6 5 5 6 7 7 7 6 6 5 5 5 6 6 6 7
Wind_Direction
202 206 210 212 212 211 209 205 197 189 181 174 171 168 166 164 168 170 169 165 163 162 160 158 157 154 152 152 152 152 154 160 163 164 161 154 141 135 133 134 141 149 157 164 173 180 183 177 182 205 236 231 249 266 297 39 69 65 57 41 239 164 123 115 159 167 161 157 159
202 205 209 213 212 210 204 200 192 184 175 164 159 155 154 155 159 159 158 157 155 151 147 146 142 141 143 147 149 151 154 161 163 163 161 160 147 140 139 142 148 153 157 161 170 178 180 171 167 182 208 209 208 221 219 173 128 117 133 235 228 184 136 136 194 192 175 163 151
198 201 205 207 205 200 196 192 186 178 169 157 141 135 137 143 145 146 147 149 142 136 133 134 133 137 141 145 148 152 156 161 162 162 162 166 154 147 144 148 151 153 155 159 170 182 180 162 160 177 199 201 196 208 209 186 156 156 180 217 214 169 128 148 201 188 138 123 119
194 196 199 202 199 195 189 184 179 174 167 153 131 124 126 133 135 136 137 137 134 134 134 134 133 137 142 147 152 157 161 164 163 162 164 170 163 156 153 155 155 156 159 164 173 181 184 156 156 175 196 199 196 207 208 184 156 157 178 203 173 130 121 138 159 96 80 81 94
193 195 196 197 194 191 184 175 173 172 167 151 135 130 130 133 131 128 129 135 144 146 143 137 136 139 144 148 155 160 164 167 166 165 165 172 169 163 160 162 161 160 161 165 169 173 171 150 152 184 205 206 206 211 206 165 135 135 146 159 106 109 113 108 87 72 68 61 56
193 194 195 194 191 188 183 174 172 171 165 151 146 148 151 150 143 140 143 150 154 148 141 137 139 142 146 150 157 162 166 169 167 165 166 171 170 166 164 168 166 162 160 162 164 162 157 141 153 214 226 217 222 231 216 109 105 101 89 34 74 104 104 95 81 74 73 64 45
189 190 192 193 190 187 184 180 177 172 165 157 159 163 165 163 158 156 156 155 151 146 142 141 145 148 152 155 160 164 167 169 167 166 167 170 169 167 167 170 167 162 159 159 158 156 151 143 160 206 233 223 226 246 325 84 93 94 94 325 252 131 116 121 95 81 78 76 63
187 189 191 191 190 188 185 181 178 175 172 169 171 171 170 166 164 162 159 155 158 156 153 150 153 156 159 161 165 167 168 168 169 170 170 171 170 169 168 166 165 164 162 158 156 155 154 152 167 193 210 205 200 196 159 112 104 107 120 220 266 147 121 127 105 92 89 93 85
189 191 191 191 190 189 186 183 180 179 179 180 179 176 172 167 167 165 165 166 170 165 158 155 158 160 162 166 169 170 169 168 169 171 173 173 172 170 167 164 164 166 166 160 157 156 156 157 171 190 201 190 187 180 159 135 128 133 152 204 280 330 69 113 112 109 106 108 115
189 190 190 190 192 191 188 186 185 184 183 183 182 179 175 171 171 171 172 173 170 167 165 164 162 163 166 171 173 173 171 168 168 169 172 174 173 170 167 164 165 167 169 167 161 158 157 158 170 188 201 189 178 169 153 137 139 147 163 180 246 338 357 71 121 127 132 142 158
188 188 188 189 191 190 189 188 190 189 188 186 185 182 179 176 175 176 175 171 171 173 174 169 165 166 169 173 175 175 172 168 167 168 169 173 173 170 166 164 165 167 170 171 166 161 159 161 170 182 194 197 177 157 140 132 137 147 158 166 150 358 334 320 128 141 149 161 170
186 186 187 188 188 188 189 191 193 194 192 190 188 186 184 180 178 176 174 172 177 178 176 170 168 169 172 175 175 174 171 168 167 167 168 171 173 171 168 166 166 168 171 173 168 164 163 165 170 178 186 193 177 155 140 132 136 145 156 166 153 161 265 282 266 165 153 156 165
183 183 185 186 186 188 190 194 195 196 196 194 191 188 186 184 179 175 174 177 179 179 175 170 170 171 173 175 174 173 172 169 167 167 169 172 173 174 173 172 170 171 172 174 171 169 168 171 173 176 181 185 178 167 155 145 144 150 161 171 176 194 218 244 256 249 156 148 167
181 181 183 183 184 187 191 195 197 198 198 198 194 190 187 186 181 177 176 179 179 176 172 171 172 174 175 174 173 172 171 169 168 169 171 175 176 177 178 179 176 175 175 176 174 173 173 176 177 177 178 181 179 175 167 158 157 161 168 175 185 196 208 221 231 234 220 191 195
183 183 182 181 183 187 191 195 196 197 197 199 196 191 186 186 183 179 177 178 177 173 169 169 174 176 175 172 170 169 169 168 169 171 174 178 179 180 181 183 182 180 179 179 178 178 178 179 179 178 178 180 181 178 174 168 168 172 176 181 187 193 200 207 210 212 214 215 215
188 186 184 182 185 188 191 194 195 195 195 198 194 190 186 187 184 180 176 177 175 171 168 170 173 174 173 171 168 166 166 168 171 174 178 181 183 184 184 185 186 184 183 182 183 183 183 182 180 178 178 181 183 182 178 174 175 180 187 193 195 197 200 202 204 207 211 214 217
192 190 187 185 188 190 192 193 192 192 193 194 191 189 187 186 184 181 179 177 174 172 172 172 172 171 171 172 169 167 167 171 174 178 181 184 185 185 186 187 187 186 185 185 186 186 186 184 181 179 179 182 188 189 186 181 182 187 195 203 208 211 212 212 212 213 216 219 222
195 193 191 190 191 192 193 192 191 191 190 189 188 187 186 184 183 183 182 178 175 174 174 173 171 171 172 174 173 172 173 176 179 182 184 185 185 185 186 187 188 187 187 188 189 189 187 185 182 181 183 189 196 200 201 198 196 197 200 206 212 216 218 220 221 220 221 224 226
197 196 194 194 194 194 193 192 191 190 189 187 186 185 184 184 183 182 183 182 179 177 174 172 172 174 175 176 176 178 180 180 182 184 184 184 184 185 186 187 188 188 189 191 193 193 191 187 184 184 187 194 200 206 210 213 213 212 210 210 212 215 217 219 221 222 223 224 226
198 197 197 196 195 194 193 192 191 189 187 185 184 184 184 184 182 182 184 186 183 179 175 174 175 177 179 179 179 181 184 184 183 184 185 184 185 186 187 187 188 189 191 192 195 196 195 191 187 186 188 194 198 202 207 211 215 217 218 218 217 217 217 217 218 219 221 223 224
200 200 199 197 195 194 193 192 190 187 185 185 184 184 184 183 183 184 186 185 182 180 179 178 178 180 181 182 182 184 185 183 183 185 186 186 188 188 188 187 188 190 192 194 196 197 197 195 191 189 189 193 197 200 202 205 209 214 217 220 221 221 221 220 218 217 218 220 221
202 200 198 196 194 193 191 189 187 186 185 186 186 184 184 183 185 185 184 181 180 182 183 184 182 182 183 183 183 183 182 181 183 185 187 188 190 191 190 188 189 192 194 196 197 197 198 197 193 191 190 194 197 199 200 202 205 209 213 217 220 222 224 224 221 219 218 218 218
201 199 196 194 192 191 189 187 185 185 186 187 186 185 184 185 185 183 180 179 182 185 187 187 185 183 183 183 181 179 178 179 183 186 189 190 191 192 192 191 192 195 197 198 197 196 197 198 196 193 192 194 197 200 201 202 203 206 209 213 217 220 223 224 223 223 222 220 219
199 196 193 192 190 188 187 185 185 186 188 189 188 186 185 185 182 180 179 180 184 187 188 189 185 182 180 179 178 177 177 178 182 186 190 192 193 193 194 195 198 199 200 200 199 198 198 198 197 195 194 195 198 200 202 202 203 204 206 210 214 218 221 222 223 224 224 224 222
196 193 192 190 189 187 186 185 186 188 189 189 187 186 185 183 181 180 180 182 185 186 187 186 182 179 177 178 178 179 179 180 182 185 189 193 194 195 196 200 202 203 203 205 206 205 204 202 199 196 194 196 198 201 202 203 204 205 207 210 213 217 219 221 222 223 224 224 223
193 192 192 190 188 187 187 188 188 189 189 188 186 186 185 183 181 180 181 183 184 184 183 182 180 178 177 177 179 180 182 183 184 185 188 191 194 196 199 202 204 205 206 208 209 209 208 206 202 198 194 193 196 200 203 205 205 206 208 211 215 217 219 220 220 221 221 222 222
192 192 192 190 188 189 190 190 189 188 188 187 187 186 186 183 181 181 182 183 182 182 180 180 180 179 177 176 179 182 185 186 186 187 189 191 194 197 200 203 204 205 208 209 211 210 210 209 206 201 195 187 191 195 198 200 202 206 209 212 215 217 219 222 222 222 221 221 221
193 193 191 189 190 191 191 189 188 188 189 188 187 186 184 180 180 181 182 182 180 179 180 182 182 180 178 179 184 186 187 187 188 189 191 193 196 199 201 204 205 207 209 211 212 212 212 211 210 205 199 188 187 189 193 194 199 205 210 214 217 219 221 222 220 218 216 217 219
193 192 190 190 192 192 191 189 189 189 189 187 185 183 181 180 181 182 183 182 181 182 184 185 184 184 185 188 189 189 190 191 191 192 194 197 200 203 205 207 208 210 212 213 214 214 214 213 213 210 205 194 187 184 188 192 198 204 210 214 214 215 216 218 217 216 215 215 215
193 191 190 192 193 193 192 191 191 189 187 184 183 182 182 183 184 185 185 185 186 187 187 184 184 188 192 193 191 191 192 194 194 194 196 199 203 206 208 209 209 211 214 215 216 216 216 215 215 215 212 204 193 186 186 192 197 202 207 211 211 211 212 214 214 215 215 214 214
193 192 192 193 194 194 193 192 190 187 184 183 182 183 184 186 187 188 188 188 190 189 187 183 186 190 193 192 190 192 194 195 195 197 199 202 205 207 209 211 210 213 215 216 217 217 217 217 217 217 217 213 204 196 191 194 199 203 207 209 208 207 208 211 212 213 213 213 213
194 193 193 194 195 195 194 191 188 185 184 183 184 185 187 189 190 190 190 189 189 188 187 186 188 190 192 191 192 194 195 195 197 198 200 202 205 207 209 211 211 213 216 218 219 219 218 218 217 218 218 217 213 206 198 197 201 206 209 211 208 207 207 209 211 211 211 211 212
196 195 195 195 195 194 192 188 187 185 185 185 186 188 189 190 190 190 190 189 189 189 189 189 189 190 191 191 193 194 196 197 198 200 201 203 204 207 209 211 213 215 217 218 220 219 219 218 217 218 218 218 217 212 203 200 204 208 212 214 212 211 210 210 211 210 210 209 210
197 196 196 196 195 193 190 188 187 186 186 187 189 189 190 189 189 190 190 190 189 190 191 191 190 191 191 191 192 194 196 198 198 199 200 201 203 205 209 211 213 215 216 218 220 220 219 218 217 217 217 218 218 215 208 206 209 213 216 219 218 217 215 214 214 213 211 209 209
197 196 196 195 193 191 189 187 187 187 187 189 190 191 190 190 190 190 190 188 187 189 191 193 191 191 191 192 193 194 196 197 197 197 198 198 200 205 209 212 213 214 215 218 219 219 219 219 218 217 216 216 217 215 212 211 214 216 219 222 223 223 222 220 220 218 216 214 214
197 195 195 194 192 190 188 187 187 188 189 190 191 191 191 191 191 190 188 184 184 186 190 193 191 191 192 195 196 197 196 195 194 194 195 196 199 204 208 210 211 213 215 217 218 219 219 218 218 217 215 214 214 213 212 214 217 220 222 225 227 227 227 226 225 224 222 220 219
196 195 193 191 190 189 187 186 187 188 190 192 191 191 190 190 189 188 185 182 183 187 190 191 192 193 194 195 196 197 196 193 191 191 193 195 198 202 206 208 208 211 214 217 217 218 218 218 217 216 214 212 210 210 211 215 219 223 225 228 230 230 230 230 230 229 227 224 223
195 193 191 189 188 188 187 186 187 189 191 192 191 190 189 187 186 185 184 183 185 188 190 191 194 195 195 194 194 195 194 191 189 190 192 195 198 200 203 206 206 208 212 215 217 217 217 216 216 214 212 209 206 206 209 214 219 224 227 229 232 231 230 231 232 232 230 228 227
193 190 188 187 187 186 186 187 189 190 191 190 189 188 187 186 186 185 185 184 186 188 190 192 195 195 193 189 190 191 192 191 189 189 191 194 197 198 200 204 204 206 209 213 216 216 216 215 215 213 211 208 204 203 206 212 219 224 228 231 233 232 231 230 232 232 232 231 231
189 188 187 187 186 185 186 187 190 190 189 187 187 187 187 186 186 184 184 184 186 188 189 192 192 191 188 185 186 188 190 190 189 189 190 192 195 198 200 203 204 205 208 212 215 215 215 213 213 212 210 207 201 200 203 209 217 224 227 230 231 232 232 230 230 231 231 232 233
185 185 185 186 186 186 186 188 189 188 187 186 187 186 185 184 182 181 181 183 185 187 188 190 188 186 184 183 184 185 187 189 190 189 188 188 193 197 200 202 203 204 208 212 214 215 214 213 212 211 209 205 198 196 199 205 215 222 226 227 228 230 231 230 230 230 229 228 229